Hourly Data Report for August 28, 2019

TORONTO CITY
ONTARIO
Current Station Operator: ECCC - MSC

43°40'00.000" N
79°24'00.000" W
112.50 m
6158355
71508
XTO

Download Data

Hourly Data (August 2019)
Hourly Data Report for August 28, 2019
TIME
LST
Temp Definition
°C
Dew Point Definition
°C
Rel Hum Definition
%
Precip. Amount Definition
mm

Wind Dir Definition
10's deg

Wind Spd Definition
km/h
Visibility Definition
km
Stn Press Definition
kPa
Hmdx Definition


Wind Chill Definition


Weather Definition


00:00 21.4 19.1 87 0.0       99.60 28   LegendNANA
01:00 21.3 19.2 88 0.0       99.58 28   LegendNANA
02:00 20.3 18.4 89 0.0       99.55 27   LegendNANA
03:00 20.0 18.3 90 0.0       99.51 26   LegendNANA
04:00 20.1 18.5 91 0.0       99.49 26   LegendNANA
05:00 19.6 18.0 91 0.0       99.54     LegendNANA
06:00 18.7 17.2 91 0.0       99.59     LegendNANA
07:00 19.0 17.5 91 0.0       99.63     LegendNANA
08:00 21.3 16.7 75 0.0       99.63 26   LegendNANA
09:00 22.9 15.8 64 0.0       99.64 27   LegendNANA
10:00 24.2 16.8 64 0.0       99.61 29   LegendNANA
11:00 24.1 15.9 60 0.0       99.61 29   LegendNANA
12:00 25.0 14.1 51 0.0       99.58 28   LegendNANA
13:00 25.8 9.1 35 0.0       99.56 27   LegendNANA
14:00 25.6 8.8 34 0.0       99.52 26   LegendNANA
15:00 26.4 5.6 26 0.0       99.51 26   LegendNANA
16:00 25.9 7.4 31 0.0       99.53 26   LegendNANA
17:00 24.9 8.3 35 0.0       99.56 25   LegendNANA
18:00 24.5 8.6 36 0.0       99.58 25   LegendNANA
19:00 23.5 9.9 42 0.0       99.62 25   LegendNANA
20:00 22.7 9.9 44 0.0       99.68     LegendNANA
21:00 20.8 11.6 56 0.0       99.74     LegendNANA
22:00 20.9 10.9 53 0.0       99.77     LegendNANA
23:00 20.4 10.6 53 0.0       99.79     LegendNANA

Notes on Data Quality.

Legend

  • E = Estimated
  • M = Missing
  • NA = Not Available*
  • [empty] = Indicates an unobserved value
Date modified: